When you browse on this site, cookies collect data to enhance your experience and personalize the content and advertising you see.
Visit our Privacy Policy to learn more. By continuing to use the site, you agree to this use of cookies and data.
  • In Romania
  • List of Countries
  • For 7 days
  • Water Temperature
  • Satellite Maps
  • Weather Map
  • Weather Widgets
  • user-avatar
    Login

    Hourly Weather Arpajon-sur-Cere

    Today, 19 February, Tuesday

    Time Temperature Precipitation Wind Pressure Humidity
    00:00 +3°C° 0 mm 1 mps 703 mmHg 93%
    01:00 +2°C° 0 mm 1 mps 703 mmHg 92%
    02:00 +2°C° 0 mm 1 mps 703 mmHg 92%
    03:00 +2°C° 0 mm 1 mps 703 mmHg 91%
    04:00 +2°C° 0 mm 1 mps 703 mmHg 91%
    05:00 +2°C° 0 mm 1 mps 703 mmHg 90%
    06:00 +2°C° 0 mm 1 mps 703 mmHg 89%
    07:00 +3°C° 0 mm 1 mps 703 mmHg 83%
    08:00 +4°C° 0 mm 0 mps 703 mmHg 76%
    09:00 +6°C° 0 mm 0 mps 704 mmHg 70%
    10:00 +8°C° 0 mm 0 mps 704 mmHg 64%
    11:00 +10°C° 0 mm 0 mps 704 mmHg 58%
    12:00 +12°C° 0 mm 0 mps 705 mmHg 52%
    13:00 +12°C° 0 mm 0 mps 704 mmHg 52%
    14:00 +12°C° 0 mm 0 mps 704 mmHg 51%
    15:00 +12°C° 0 mm 0 mps 704 mmHg 51%
    16:00 +10°C° 0 mm 0 mps 703 mmHg 63%
    17:00 +7°C° 0 mm 0 mps 703 mmHg 75%
    18:00 +5°C° 0 mm 0 mps 703 mmHg 86%
    19:00 +4°C° 0 mm 0 mps 703 mmHg 88%
    20:00 +4°C° 0 mm 0 mps 703 mmHg 90%
    21:00 +3°C° 0 mm 0 mps 703 mmHg 91%
    22:00 +3°C° 0 mm 0 mps 704 mmHg 92%
    23:00 +4°C° 0 mm 1 mps 704 mmHg 92%

    Tomorrow, 20 February, Wednesday

    Time Temperature Precipitation Wind Pressure Humidity
    00:00 +3°C° 0 mm 1 mps 704 mmHg 92%
    01:00 +3°C° 0 mm 1 mps 704 mmHg 92%
    02:00 +3°C° 0 mm 1 mps 704 mmHg 92%
    03:00 +3°C° 0 mm 1 mps 704 mmHg 91%
    04:00 +3°C° 0 mm 1 mps 704 mmHg 91%
    05:00 +2°C° 0 mm 1 mps 704 mmHg 90%
    06:00 +2°C° 0 mm 1 mps 704 mmHg 90%
    07:00 +4°C° 0 mm 1 mps 704 mmHg 82%
    08:00 +6°C° 0 mm 1 mps 705 mmHg 74%
    09:00 +7°C° 0 mm 0 mps 705 mmHg 66%
    10:00 +9°C° 0 mm 0 mps 706 mmHg 57%
    11:00 +12°C° 0 mm 1 mps 706 mmHg 48%
    12:00 +14°C° 0 mm 1 mps 706 mmHg 39%
    13:00 +14°C° 0 mm 1 mps 706 mmHg 39%
    14:00 +14°C° 0 mm 1 mps 706 mmHg 39%
    15:00 +13°C° 0 mm 0 mps 705 mmHg 39%
    16:00 +10°C° 0 mm 0 mps 705 mmHg 48%
    17:00 +8°C° 0 mm 0 mps 705 mmHg 57%
    18:00 +5°C° 0 mm 0 mps 705 mmHg 66%
    19:00 +4°C° 0 mm 0 mps 705 mmHg 68%
    20:00 +5°C° 0 mm 1 mps 706 mmHg 69%
    21:00 +4°C° 0 mm 1 mps 706 mmHg 70%
    22:00 +4°C° 0 mm 1 mps 706 mmHg 70%
    23:00 +4°C° 0 mm 1 mps 706 mmHg 70%

    Day after tomorrow, 21 February, Thursday

    Time Temperature Precipitation Wind Pressure Humidity
    00:00 +4°C° 0 mm 1 mps 706 mmHg 70%
    01:00 +3°C° 0 mm 1 mps 707 mmHg 70%
    02:00 +3°C° 0 mm 1 mps 707 mmHg 69%
    03:00 +3°C° 0 mm 1 mps 707 mmHg 69%
    04:00 +3°C° 0 mm 1 mps 707 mmHg 69%
    05:00 +3°C° 0 mm 1 mps 707 mmHg 70%
    06:00 +3°C° 0 mm 1 mps 707 mmHg 70%
    07:00 +5°C° 0 mm 1 mps 708 mmHg 65%
    08:00 +7°C° 0 mm 1 mps 708 mmHg 61%
    09:00 +8°C° 0 mm 0 mps 709 mmHg 56%
    10:00 +10°C° 0 mm 0 mps 709 mmHg 50%
    11:00 +12°C° 0 mm 0 mps 710 mmHg 43%
    12:00 +15°C° 0 mm 0 mps 710 mmHg 36%
    13:00 +14°C° 0 mm 0 mps 710 mmHg 37%
    14:00 +14°C° 0 mm 0 mps 710 mmHg 37%
    15:00 +14°C° 0 mm 0 mps 710 mmHg 38%
    16:00 +12°C° 0 mm 0 mps 709 mmHg 47%
    17:00 +9°C° 0 mm 0 mps 709 mmHg 56%
    18:00 +6°C° 0 mm 0 mps 709 mmHg 65%
    19:00 +6°C° 0 mm 0 mps 710 mmHg 66%
    20:00 +6°C° 0 mm 1 mps 710 mmHg 68%
    21:00 +6°C° 0 mm 1 mps 710 mmHg 70%
    22:00 +6°C° 0 mm 1 mps 710 mmHg 70%
    23:00 +5°C° 0 mm 1 mps 711 mmHg 70%

    22 February, Friday

    Time Temperature Precipitation Wind Pressure Humidity
    00:00 +5°C° 0 mm 1 mps 711 mmHg 70%
    01:00 +5°C° 0 mm 1 mps 711 mmHg 70%
    02:00 +5°C° 0 mm 1 mps 711 mmHg 69%
    03:00 +5°C° 0 mm 1 mps 711 mmHg 69%
    04:00 +4°C° 0 mm 1 mps 711 mmHg 69%
    05:00 +4°C° 0 mm 1 mps 711 mmHg 70%
    06:00 +4°C° 0 mm 1 mps 710 mmHg 70%
    07:00 +6°C° 0 mm 1 mps 711 mmHg 65%
    08:00 +8°C° 0 mm 1 mps 711 mmHg 60%
    09:00 +10°C° 0 mm 1 mps 712 mmHg 55%
    10:00 +12°C° 0 mm 1 mps 712 mmHg 49%
    11:00 +14°C° 0 mm 1 mps 712 mmHg 44%
    12:00 +16°C° 0 mm 2 mps 712 mmHg 39%
    13:00 +18°C° 0 mm 1 mps 711 mmHg 40%
    14:00 +18°C° 0 mm 1 mps 711 mmHg 41%
    15:00 +18°C° 0 mm 1 mps 710 mmHg 43%
    16:00 +14°C° 0 mm 1 mps 710 mmHg 53%
    17:00 +11°C° 0 mm 1 mps 709 mmHg 63%
    18:00 +9°C° 0 mm 1 mps 709 mmHg 73%
    19:00 +8°C° 0 mm 1 mps 709 mmHg 75%
    20:00 +7°C° 0 mm 1 mps 709 mmHg 77%
    21:00 +7°C° 0 mm 1 mps 709 mmHg 80%
    22:00 +6°C° 0 mm 1 mps 709 mmHg 81%
    23:00 +6°C° 0 mm 1 mps 709 mmHg 81%

    23 February, Saturday

    Time Temperature Precipitation Wind Pressure Humidity
    00:00 +5°C° 0 mm 1 mps 708 mmHg 82%
    01:00 +5°C° 0 mm 1 mps 708 mmHg 81%
    02:00 +5°C° 0 mm 1 mps 708 mmHg 80%
    03:00 +5°C° 0 mm 1 mps 708 mmHg 79%
    04:00 +5°C° 0 mm 1 mps 708 mmHg 76%
    05:00 +5°C° 0 mm 1 mps 708 mmHg 74%
    06:00 +5°C° 0 mm 1 mps 708 mmHg 71%
    07:00 +7°C° 0 mm 1 mps 709 mmHg 65%
    08:00 +9°C° 0 mm 1 mps 709 mmHg 60%
    09:00 +11°C° 0 mm 1 mps 710 mmHg 54%
    10:00 +13°C° 0 mm 1 mps 710 mmHg 49%
    11:00 +15°C° 0 mm 1 mps 710 mmHg 44%
    12:00 +18°C° 0 mm 1 mps 710 mmHg 39%
    13:00 +18°C° 0 mm 1 mps 710 mmHg 41%
    14:00 +18°C° 0 mm 1 mps 710 mmHg 42%
    15:00 +18°C° 0 mm 1 mps 709 mmHg 43%
    16:00 +13°C° 0 mm 0 mps 709 mmHg 54%
    17:00 +11°C° 0 mm 0 mps 709 mmHg 65%
    18:00 +8°C° 0 mm 0 mps 708 mmHg 76%
    19:00 +8°C° 0 mm 0 mps 708 mmHg 78%
    20:00 +7°C° 0 mm 0 mps 709 mmHg 80%
    21:00 +8°C° 0 mm 1 mps 709 mmHg 82%
    22:00 +7°C° 0 mm 1 mps 709 mmHg 82%
    23:00 +7°C° 0 mm 1 mps 709 mmHg 83%

    24 February, Sunday

    Time Temperature Precipitation Wind Pressure Humidity
    00:00 +7°C° 0 mm 1 mps 709 mmHg 83%
    01:00 +6°C° 0 mm 1 mps 709 mmHg 84%
    02:00 +6°C° 0 mm 1 mps 709 mmHg 84%
    03:00 +5°C° 0 mm 0 mps 709 mmHg 85%
    04:00 +6°C° 0 mm 1 mps 709 mmHg 85%
    05:00 +6°C° 0 mm 1 mps 709 mmHg 86%
    06:00 +5°C° 0 mm 1 mps 708 mmHg 86%
    07:00 +6°C° 0 mm 0 mps 709 mmHg 79%
    08:00 +8°C° 0 mm 0 mps 709 mmHg 71%
    09:00 +10°C° 0 mm 0 mps 710 mmHg 64%
    10:00 +13°C° 0 mm 1 mps 710 mmHg 59%
    11:00 +15°C° 0 mm 1 mps 710 mmHg 55%
    12:00 +16°C° 0 mm 1 mps 710 mmHg 51%
    13:00 +16°C° 0 mm 1 mps 710 mmHg 52%
    14:00 +16°C° 0 mm 1 mps 709 mmHg 54%
    15:00 +16°C° 0 mm 2 mps 709 mmHg 55%
    16:00 +14°C° 0 mm 1 mps 709 mmHg 67%
    17:00 +11°C° 0 mm 1 mps 709 mmHg 78%
    18:00 +8°C° 0 mm 0 mps 709 mmHg 90%
    19:00 +7°C° 0 mm 0 mps 709 mmHg 92%
    20:00 +7°C° 0 mm 0 mps 709 mmHg 93%
    21:00 +6°C° 0 mm 0 mps 709 mmHg 94%
    22:00 +6°C° 0 mm 0 mps 709 mmHg 94%
    23:00 +5°C° 0 mm 0 mps 710 mmHg 95%
    Show more